ABS-3A

Last updated on Sun Jun 21 2026 00:03:06 GMT+0000 (Coordinated Universal Time)

1 40424U 15010A 26171.10626341 .00000000 00000+0 00000+0 0 9999 2 40424 0.0397 55.4305 0001823 349.9355 258.1914 1.00270734 41402
UTC large
Height (km)
Speed (km/s)
/
Latitude / Longitude
Inclination (degrees)
Orbital Period (minutes)
Azimuth
Elevation
Range (km)
Doppler Factor

Next 0 passes for location: London (51.5072 / 0.1276)

No passes found over London.
ABS-3A